DAL2629 CYUL-KATL

Flight info

Callsign DAL2629
Flight time 2h 22m
Altitude 38000
Route FAWNS DCT BUGSY DCT SYR J59 PSB DCT HACKS DCT HVQ DCT HLRRY ONDRE1
Aircraft A320/M-SDE3FGHIRWY/LB1

Departure

Time 2026-05-05 20:46
Airport Montreal / Pierre Elliott Trudeau International Airport (CYUL)

Arrival

Time 2026-05-05 23:08
Airport Hartsfield Jackson Atlanta International Airport (KATL)
Time Latitude Longitude Altitude Speed Heading
2026-05-05 20:31 45.45939 -73.74900 110 ft 0 kts 179°
2026-05-05 20:35 45.45951 -73.74900 111 ft 3 kts 176°
2026-05-05 20:35 45.45970 -73.74905 113 ft 3 kts 145°
2026-05-05 20:35 45.45982 -73.74924 111 ft 3 kts 109°
2026-05-05 20:35 45.45986 -73.74950 110 ft 2 kts 89°
2026-05-05 20:36 45.45986 -73.74963 111 ft 1 kts 88°
2026-05-05 20:36 45.45986 -73.74964 111 ft 1 kts 88°
2026-05-05 20:39 45.45986 -73.74960 114 ft 1 kts 88°
2026-05-05 20:39 45.45987 -73.74913 114 ft 10 kts 88°
2026-05-05 20:39 45.45989 -73.74811 114 ft 10 kts 90°
2026-05-05 20:39 45.45959 -73.74718 114 ft 10 kts 118°
2026-05-05 20:40 45.45952 -73.74623 114 ft 11 kts 79°
2026-05-05 20:40 45.45981 -73.74498 118 ft 16 kts 70°
2026-05-05 20:40 45.45983 -73.74358 114 ft 14 kts 128°
2026-05-05 20:40 45.45993 -73.74244 113 ft 13 kts 43°
2026-05-05 20:41 45.46058 -73.74162 114 ft 13 kts 41°
2026-05-05 20:41 45.46139 -73.74056 114 ft 20 kts 43°
2026-05-05 20:41 45.46257 -73.73901 115 ft 25 kts 42°
2026-05-05 20:41 45.46404 -73.73711 116 ft 32 kts 43°
2026-05-05 20:42 45.46573 -73.73488 115 ft 33 kts 42°
2026-05-05 20:42 45.46739 -73.73270 113 ft 32 kts 43°
2026-05-05 20:42 45.46896 -73.73066 115 ft 29 kts 41°
2026-05-05 20:42 45.47035 -73.72882 116 ft 26 kts 43°
2026-05-05 20:43 45.47164 -73.72721 116 ft 23 kts 48°
2026-05-05 20:43 45.47282 -73.72571 115 ft 24 kts 43°
2026-05-05 20:43 45.47411 -73.72386 113 ft 29 kts 43°
2026-05-05 20:43 45.47556 -73.72199 117 ft 26 kts 41°
2026-05-05 20:44 45.47685 -73.72032 117 ft 22 kts 44°
2026-05-05 20:44 45.47792 -73.71891 115 ft 13 kts 43°
2026-05-05 20:44 45.47804 -73.71785 113 ft 13 kts 128°
2026-05-05 20:44 45.47738 -73.71692 112 ft 14 kts 137°
2026-05-05 20:45 45.47643 -73.71679 113 ft 6 kts 222°
2026-05-05 20:45 45.47591 -73.71747 114 ft 26 kts 223°
2026-05-05 20:45 45.47276 -73.72161 111 ft 94 kts 222°
2026-05-05 20:46 45.46658 -73.72975 132 ft 143 kts 223°
2026-05-05 20:46 45.45904 -73.73969 648 ft 151 kts 222°
2026-05-05 20:46 45.45120 -73.74990 1304 ft 154 kts 223°
2026-05-05 20:46 45.44303 -73.75987 2040 ft 160 kts 217°
2026-05-05 20:47 45.43271 -73.76837 2422 ft 183 kts 213°
2026-05-05 20:47 45.42053 -73.77726 2816 ft 209 kts 212°
2026-05-05 20:47 45.40687 -73.78709 3337 ft 230 kts 212°
2026-05-05 20:47 45.39229 -73.79757 4220 ft 238 kts 213°
2026-05-05 20:48 45.37747 -73.80825 5237 ft 240 kts 214°
2026-05-05 20:48 45.36257 -73.81906 6286 ft 240 kts 214°
2026-05-05 20:48 45.34764 -73.82993 7267 ft 242 kts 214°
2026-05-05 20:48 45.33262 -73.84092 8243 ft 244 kts 214°
2026-05-05 20:49 45.31743 -73.85207 9181 ft 247 kts 213°
2026-05-05 20:49 45.30216 -73.86330 10072 ft 249 kts 213°
2026-05-05 20:49 45.28627 -73.87513 10549 ft 269 kts 213°
2026-05-05 20:49 45.26914 -73.88797 11000 ft 285 kts 213°
2026-05-05 20:50 45.25146 -73.90111 11737 ft 290 kts 213°
2026-05-05 20:50 45.23345 -73.91437 12548 ft 293 kts 212°
2026-05-05 20:50 45.21521 -73.92772 13332 ft 296 kts 212°
2026-05-05 20:50 45.19679 -73.94120 14019 ft 299 kts 212°
2026-05-05 20:51 45.17819 -73.95485 14718 ft 302 kts 212°
2026-05-05 20:51 45.15948 -73.96860 15394 ft 304 kts 212°
2026-05-05 20:51 45.14060 -73.98248 16079 ft 307 kts 212°
2026-05-05 20:51 45.12159 -73.99647 16761 ft 309 kts 212°
2026-05-05 20:52 45.10242 -74.01055 17445 ft 312 kts 212°
2026-05-05 20:52 45.08306 -74.02475 18090 ft 314 kts 212°
2026-05-05 20:52 45.06359 -74.03904 18660 ft 317 kts 212°
2026-05-05 20:52 45.04388 -74.05347 19197 ft 320 kts 212°
2026-05-05 20:53 45.02396 -74.06803 19695 ft 325 kts 212°
2026-05-05 20:53 45.00370 -74.08248 20226 ft 330 kts 208°
2026-05-05 20:53 44.98158 -74.09249 20770 ft 340 kts 197°
2026-05-05 20:53 44.95792 -74.09739 21333 ft 346 kts 194°
2026-05-05 20:54 44.93398 -74.10182 21890 ft 349 kts 194°
2026-05-05 20:54 44.90975 -74.10629 22444 ft 352 kts 194°
2026-05-05 20:54 44.88541 -74.11083 22995 ft 355 kts 194°
2026-05-05 20:54 44.86084 -74.11547 23488 ft 358 kts 194°
2026-05-05 20:55 44.83634 -74.12016 23870 ft 362 kts 194°
2026-05-05 20:55 44.81126 -74.12494 24277 ft 366 kts 194°
2026-05-05 20:55 44.78594 -74.12974 24688 ft 369 kts 194°
2026-05-05 20:55 44.76037 -74.13487 25081 ft 370 kts 198°
2026-05-05 20:56 44.73576 -74.14472 25478 ft 366 kts 207°
2026-05-05 20:56 44.71304 -74.16059 25888 ft 363 kts 217°
2026-05-05 20:56 44.69296 -74.18183 26271 ft 361 kts 226°
2026-05-05 20:56 44.67498 -74.20659 26666 ft 362 kts 228°
2026-05-05 20:57 44.65696 -74.23148 26996 ft 366 kts 228°
2026-05-05 20:57 44.63862 -74.25662 27334 ft 369 kts 228°
2026-05-05 20:57 44.62013 -74.28185 27705 ft 372 kts 229°
2026-05-05 20:57 44.60152 -74.30728 28072 ft 374 kts 229°
2026-05-05 20:58 44.58280 -74.33283 28442 ft 377 kts 229°
2026-05-05 20:58 44.56396 -74.35848 28791 ft 379 kts 229°
2026-05-05 20:58 44.54495 -74.38430 29129 ft 381 kts 229°
2026-05-05 20:58 44.53227 -74.40149 29360 ft 383 kts 229°
2026-05-05 20:59 44.51311 -74.42750 29719 ft 385 kts 229°
2026-05-05 20:59 44.49380 -74.45376 29993 ft 389 kts 230°
2026-05-05 20:59 44.46795 -74.48890 30361 ft 392 kts 229°
2026-05-05 20:59 44.44831 -74.51550 30635 ft 394 kts 229°
2026-05-05 21:00 44.42857 -74.54216 30917 ft 395 kts 229°
2026-05-05 21:00 44.41515 -74.56022 31102 ft 396 kts 229°
2026-05-05 21:00 44.38884 -74.59565 31538 ft 396 kts 229°
2026-05-05 21:00 44.37543 -74.61373 31794 ft 395 kts 229°
2026-05-05 21:01 44.35571 -74.64031 32166 ft 394 kts 229°
2026-05-05 21:01 44.33603 -74.66676 32508 ft 393 kts 229°
2026-05-05 21:01 44.31638 -74.69320 32846 ft 392 kts 229°
2026-05-05 21:01 44.29679 -74.71960 33222 ft 390 kts 229°
2026-05-05 21:02 44.27730 -74.74587 33606 ft 389 kts 229°
2026-05-05 21:02 44.25781 -74.77204 33950 ft 388 kts 229°
2026-05-05 21:02 44.23835 -74.79808 34261 ft 387 kts 229°
2026-05-05 21:02 44.21893 -74.82401 34552 ft 386 kts 229°
2026-05-05 21:03 44.19959 -74.84983 34851 ft 385 kts 229°
2026-05-05 21:03 44.18027 -74.87565 35104 ft 384 kts 229°
2026-05-05 21:03 44.16107 -74.90128 35430 ft 382 kts 229°
2026-05-05 21:03 44.14194 -74.92681 35734 ft 380 kts 229°
2026-05-05 21:04 44.12292 -74.95219 35992 ft 379 kts 229°
2026-05-05 21:04 44.10387 -74.97756 36233 ft 379 kts 229°
2026-05-05 21:04 44.08483 -75.00288 36461 ft 378 kts 229°
2026-05-05 21:04 44.06578 -75.02814 36694 ft 378 kts 229°
2026-05-05 21:05 44.04679 -75.05335 36936 ft 378 kts 229°
2026-05-05 21:05 44.02777 -75.07858 37113 ft 378 kts 229°
2026-05-05 21:05 44.00876 -75.10381 37294 ft 378 kts 229°
2026-05-05 21:05 43.99006 -75.12865 37546 ft 377 kts 229°
2026-05-05 21:06 43.97107 -75.15379 37725 ft 377 kts 229°
2026-05-05 21:06 43.95208 -75.17883 37762 ft 376 kts 229°
2026-05-05 21:06 43.91428 -75.22870 37755 ft 375 kts 229°
2026-05-05 21:07 43.87643 -75.27843 37764 ft 375 kts 229°
2026-05-05 21:07 43.83856 -75.32815 37764 ft 375 kts 229°
2026-05-05 21:08 43.80075 -75.37791 37757 ft 375 kts 229°
2026-05-05 21:08 43.76292 -75.42754 37791 ft 375 kts 229°
2026-05-05 21:09 43.72496 -75.47699 37784 ft 374 kts 229°
2026-05-05 21:09 43.68711 -75.52643 37745 ft 374 kts 230°
2026-05-05 21:10 43.64922 -75.57581 37751 ft 374 kts 230°
2026-05-05 21:10 43.61140 -75.62506 37761 ft 374 kts 230°
2026-05-05 21:11 43.57347 -75.67427 37764 ft 374 kts 230°
2026-05-05 21:11 43.53557 -75.72337 37770 ft 374 kts 230°
2026-05-05 21:12 43.49768 -75.77233 37745 ft 373 kts 230°
2026-05-05 21:12 43.46009 -75.82082 37791 ft 372 kts 230°
2026-05-05 21:13 43.42235 -75.86949 37789 ft 372 kts 230°
2026-05-05 21:13 43.38464 -75.91798 37776 ft 371 kts 230°
2026-05-05 21:14 43.34700 -75.96629 37755 ft 370 kts 230°
2026-05-05 21:14 43.30935 -76.01459 37759 ft 370 kts 230°
2026-05-05 21:15 43.27168 -76.06281 37771 ft 370 kts 230°
2026-05-05 21:15 43.23397 -76.11103 37772 ft 370 kts 230°
2026-05-05 21:16 43.19622 -76.15914 37786 ft 370 kts 230°
2026-05-05 21:16 43.15782 -76.20619 37754 ft 376 kts 224°
2026-05-05 21:17 43.11281 -76.24418 37757 ft 381 kts 220°
2026-05-05 21:17 43.06748 -76.28164 37755 ft 381 kts 220°
2026-05-05 21:18 43.02210 -76.31924 37773 ft 381 kts 220°
2026-05-05 21:18 42.97668 -76.35676 37735 ft 382 kts 221°
2026-05-05 21:19 42.93091 -76.39450 37752 ft 385 kts 221°
2026-05-05 21:19 42.88504 -76.43225 37757 ft 386 kts 221°
2026-05-05 21:20 42.83904 -76.47001 37757 ft 387 kts 221°
2026-05-05 21:20 42.79279 -76.50784 37769 ft 388 kts 221°
2026-05-05 21:21 42.74643 -76.54578 37784 ft 388 kts 221°
2026-05-05 21:21 42.70016 -76.58365 37795 ft 388 kts 221°
2026-05-05 21:22 42.65384 -76.62146 37800 ft 388 kts 221°
2026-05-05 21:22 42.60746 -76.65925 37758 ft 390 kts 221°
2026-05-05 21:23 42.56083 -76.69717 37759 ft 392 kts 221°
2026-05-05 21:23 42.51398 -76.73519 37764 ft 393 kts 221°
2026-05-05 21:24 42.46697 -76.77327 37770 ft 394 kts 221°
2026-05-05 21:24 42.41974 -76.81141 37750 ft 396 kts 220°
2026-05-05 21:25 42.37230 -76.84980 37757 ft 398 kts 220°
2026-05-05 21:25 42.32469 -76.88820 37781 ft 399 kts 221°
2026-05-05 21:26 42.27700 -76.92643 37795 ft 399 kts 221°
2026-05-05 21:26 42.22924 -76.96470 37767 ft 399 kts 220°
2026-05-05 21:27 42.18144 -77.00297 37769 ft 400 kts 220°
2026-05-05 21:27 42.13350 -77.04132 37776 ft 401 kts 221°
2026-05-05 21:28 42.08546 -77.07978 37780 ft 402 kts 220°
2026-05-05 21:28 42.03736 -77.11816 37788 ft 402 kts 220°
2026-05-05 21:29 41.98919 -77.15644 37793 ft 402 kts 220°
2026-05-05 21:29 41.94095 -77.19473 37801 ft 402 kts 220°
2026-05-05 21:30 41.89275 -77.23286 37803 ft 402 kts 220°
2026-05-05 21:30 41.84459 -77.27097 37815 ft 402 kts 220°
2026-05-05 21:31 41.79639 -77.30902 37822 ft 402 kts 220°
2026-05-05 21:31 41.74821 -77.34700 37823 ft 401 kts 220°
2026-05-05 21:32 41.70018 -77.38483 37784 ft 401 kts 220°
2026-05-05 21:32 41.65206 -77.42271 37786 ft 402 kts 220°
2026-05-05 21:33 41.60367 -77.46064 37790 ft 404 kts 220°
2026-05-05 21:33 41.55516 -77.49858 37802 ft 404 kts 220°
2026-05-05 21:34 41.50664 -77.53647 37782 ft 404 kts 220°
2026-05-05 21:34 41.45808 -77.57440 37790 ft 405 kts 220°
2026-05-05 21:35 41.40945 -77.61237 37807 ft 405 kts 220°
2026-05-05 21:35 41.36066 -77.65026 37820 ft 406 kts 220°
2026-05-05 21:36 41.31216 -77.68778 37797 ft 405 kts 220°
2026-05-05 21:36 41.26337 -77.72562 37799 ft 406 kts 220°
2026-05-05 21:37 41.21456 -77.76340 37803 ft 407 kts 220°
2026-05-05 21:37 41.16559 -77.80127 37807 ft 408 kts 220°
2026-05-05 21:38 41.11657 -77.83903 37796 ft 408 kts 220°
2026-05-05 21:38 41.06727 -77.87701 37824 ft 411 kts 220°
2026-05-05 21:39 41.01780 -77.91496 37838 ft 411 kts 220°
2026-05-05 21:39 40.96825 -77.95285 37845 ft 411 kts 220°
2026-05-05 21:40 40.92107 -77.99392 37830 ft 396 kts 232°
2026-05-05 21:40 40.88601 -78.04755 37830 ft 381 kts 243°
2026-05-05 21:41 40.85498 -78.10438 37834 ft 381 kts 243°
2026-05-05 21:41 40.82904 -78.15150 37831 ft 381 kts 243°
2026-05-05 21:42 40.79776 -78.20806 37827 ft 382 kts 243°
2026-05-05 21:42 40.76641 -78.26465 37820 ft 382 kts 243°
2026-05-05 21:43 40.73519 -78.32121 37783 ft 382 kts 243°
2026-05-05 21:43 40.70383 -78.37782 37796 ft 382 kts 243°
2026-05-05 21:44 40.67237 -78.43445 37804 ft 383 kts 243°
2026-05-05 21:44 40.64088 -78.49099 37811 ft 383 kts 243°
2026-05-05 21:45 40.60933 -78.54757 37816 ft 383 kts 243°
2026-05-05 21:45 40.57782 -78.60405 37825 ft 383 kts 243°
2026-05-05 21:46 40.54620 -78.66051 37811 ft 384 kts 243°
2026-05-05 21:46 40.51450 -78.71695 37827 ft 384 kts 243°
2026-05-05 21:47 40.48284 -78.77338 37867 ft 383 kts 243°
2026-05-05 21:47 40.45119 -78.82970 37881 ft 383 kts 243°
2026-05-05 21:48 40.41967 -78.88566 37889 ft 383 kts 243°
2026-05-05 21:48 40.38795 -78.94173 37890 ft 382 kts 243°
2026-05-05 21:49 40.35619 -78.99791 37854 ft 383 kts 243°
2026-05-05 21:49 40.32439 -79.05407 37856 ft 384 kts 243°
2026-05-05 21:50 40.29253 -79.11026 37861 ft 384 kts 243°
2026-05-05 21:50 40.26061 -79.16631 37926 ft 384 kts 243°
2026-05-05 21:51 40.22859 -79.22234 37960 ft 384 kts 243°
2026-05-05 21:51 40.19666 -79.27823 37966 ft 384 kts 243°
2026-05-05 21:52 40.14874 -79.36205 37889 ft 383 kts 243°
2026-05-05 21:53 40.11700 -79.41741 37881 ft 383 kts 243°
2026-05-05 21:53 40.08497 -79.47312 37887 ft 383 kts 243°
2026-05-05 21:54 40.05300 -79.52871 37893 ft 383 kts 243°
2026-05-05 21:54 40.02107 -79.58418 37902 ft 383 kts 243°
2026-05-05 21:55 39.98901 -79.63970 37886 ft 383 kts 243°
2026-05-05 21:55 39.95698 -79.69507 37855 ft 383 kts 243°
2026-05-05 21:56 39.92485 -79.75052 37866 ft 383 kts 243°
2026-05-05 21:56 39.89269 -79.80585 37886 ft 383 kts 243°
2026-05-05 21:57 39.86052 -79.86117 37902 ft 382 kts 243°
2026-05-05 21:57 39.82841 -79.91628 37912 ft 382 kts 243°
2026-05-05 21:58 39.79629 -79.97127 37875 ft 382 kts 243°
2026-05-05 21:58 39.76413 -80.02624 37884 ft 382 kts 243°
2026-05-05 21:59 39.73200 -80.08116 37890 ft 382 kts 243°
2026-05-05 21:59 39.70002 -80.13581 37893 ft 382 kts 243°
2026-05-05 22:00 39.66781 -80.19064 37898 ft 382 kts 243°
2026-05-05 22:00 39.63559 -80.24530 37903 ft 381 kts 243°
2026-05-05 22:01 39.60333 -80.29997 37868 ft 381 kts 243°
2026-05-05 22:01 39.57106 -80.35455 37867 ft 382 kts 243°
2026-05-05 22:02 39.53872 -80.40921 37872 ft 382 kts 243°
2026-05-05 22:02 39.50635 -80.46377 37876 ft 382 kts 243°
2026-05-05 22:03 39.47395 -80.51828 37874 ft 381 kts 243°
2026-05-05 22:03 39.44163 -80.57259 37872 ft 381 kts 243°
2026-05-05 22:04 39.40932 -80.62694 37842 ft 381 kts 243°
2026-05-05 22:04 39.37697 -80.68118 37860 ft 381 kts 243°
2026-05-05 22:05 39.34452 -80.73546 37865 ft 382 kts 243°
2026-05-05 22:05 39.31206 -80.78974 37867 ft 382 kts 243°
2026-05-05 22:06 39.27957 -80.84386 37870 ft 381 kts 243°
2026-05-05 22:06 39.24720 -80.89759 37867 ft 382 kts 243°
2026-05-05 22:07 39.21441 -80.95198 37842 ft 381 kts 244°
2026-05-05 22:07 39.18196 -81.00601 37863 ft 381 kts 244°
2026-05-05 22:08 39.14938 -81.06004 37883 ft 382 kts 243°
2026-05-05 22:08 39.11145 -81.10910 37887 ft 405 kts 227°
2026-05-05 22:09 39.06462 -81.15010 37885 ft 407 kts 227°
2026-05-05 22:09 39.01775 -81.19109 37856 ft 407 kts 227°
2026-05-05 22:10 38.97062 -81.23234 37870 ft 407 kts 227°
2026-05-05 22:10 38.92409 -81.27306 37871 ft 407 kts 227°
2026-05-05 22:11 38.87722 -81.31395 37881 ft 407 kts 227°
2026-05-05 22:11 38.83045 -81.35463 37892 ft 406 kts 227°
2026-05-05 22:12 38.78376 -81.39525 37865 ft 405 kts 227°
2026-05-05 22:12 38.73707 -81.43581 37877 ft 405 kts 227°
2026-05-05 22:13 38.69044 -81.47626 37873 ft 404 kts 227°
2026-05-05 22:13 38.64386 -81.51657 37880 ft 404 kts 227°
2026-05-05 22:14 38.59724 -81.55684 37880 ft 404 kts 227°
2026-05-05 22:14 38.55069 -81.59710 37879 ft 404 kts 227°
2026-05-05 22:15 38.50400 -81.63733 37882 ft 404 kts 227°
2026-05-05 22:15 38.45737 -81.67753 37887 ft 404 kts 228°
2026-05-05 22:16 38.41071 -81.71760 37914 ft 404 kts 228°
2026-05-05 22:16 38.36404 -81.75747 37891 ft 406 kts 225°
2026-05-05 22:16 38.33852 -81.77451 37872 ft 423 kts 216°
2026-05-05 22:17 38.31038 -81.78738 37877 ft 431 kts 213°
2026-05-05 22:17 38.25357 -81.81212 37883 ft 432 kts 213°
2026-05-05 22:18 38.19662 -81.83698 37890 ft 432 kts 213°
2026-05-05 22:18 38.14010 -81.86177 37892 ft 433 kts 213°
2026-05-05 22:19 38.08311 -81.88671 37895 ft 433 kts 213°
2026-05-05 22:19 38.02613 -81.91154 37902 ft 433 kts 213°
2026-05-05 22:20 37.96908 -81.93635 37900 ft 433 kts 213°
2026-05-05 22:20 37.91216 -81.96111 37877 ft 433 kts 213°
2026-05-05 22:21 37.85506 -81.98588 37880 ft 434 kts 213°
2026-05-05 22:21 37.79781 -82.01065 37878 ft 435 kts 213°
2026-05-05 22:22 37.74042 -82.03539 37876 ft 435 kts 213°
2026-05-05 22:22 37.68299 -82.06021 37844 ft 436 kts 213°
2026-05-05 22:23 37.62534 -82.08512 37890 ft 439 kts 213°
2026-05-05 22:23 37.56748 -82.11001 37894 ft 439 kts 213°
2026-05-05 22:24 37.50959 -82.13484 37905 ft 439 kts 213°
2026-05-05 22:24 37.45191 -82.15963 37857 ft 438 kts 213°
2026-05-05 22:25 37.39400 -82.18447 37885 ft 441 kts 213°
2026-05-05 22:25 37.33581 -82.20930 37902 ft 441 kts 212°
2026-05-05 22:26 37.28756 -82.22986 37887 ft 440 kts 213°
2026-05-05 22:26 37.22943 -82.25465 37903 ft 441 kts 213°
2026-05-05 22:27 37.17125 -82.27941 37889 ft 442 kts 212°
2026-05-05 22:27 37.11297 -82.30414 37909 ft 443 kts 212°
2026-05-05 22:28 37.05577 -82.33103 37913 ft 432 kts 218°
2026-05-05 22:28 37.00092 -82.36221 37918 ft 432 kts 218°
2026-05-05 22:29 36.94617 -82.39328 37891 ft 432 kts 218°
2026-05-05 22:29 36.89135 -82.42431 37903 ft 432 kts 218°
2026-05-05 22:30 36.83652 -82.45522 37915 ft 432 kts 218°
2026-05-05 22:30 36.78170 -82.48609 37919 ft 432 kts 218°
2026-05-05 22:31 36.72690 -82.51683 37926 ft 432 kts 218°
2026-05-05 22:31 36.67199 -82.54763 37913 ft 433 kts 218°
2026-05-05 22:32 36.61705 -82.57841 37906 ft 433 kts 218°
2026-05-05 22:32 36.56208 -82.60916 37908 ft 433 kts 218°
2026-05-05 22:33 36.50706 -82.63993 37886 ft 434 kts 218°
2026-05-05 22:33 36.45184 -82.67077 37918 ft 436 kts 217°
2026-05-05 22:34 36.39642 -82.70157 37930 ft 435 kts 217°
2026-05-05 22:34 36.34080 -82.73245 37955 ft 437 kts 217°
2026-05-05 22:35 36.28546 -82.76313 37972 ft 437 kts 217°
2026-05-05 22:35 36.23038 -82.79380 37947 ft 435 kts 218°
2026-05-05 22:36 36.17580 -82.82584 37960 ft 433 kts 219°
2026-05-05 22:36 36.12160 -82.85834 37976 ft 433 kts 219°
2026-05-05 22:37 36.06682 -82.89077 37975 ft 434 kts 219°
2026-05-05 22:37 36.01258 -82.92254 37938 ft 434 kts 218°
2026-05-05 22:38 35.95759 -82.95469 37948 ft 434 kts 218°
2026-05-05 22:38 35.90329 -82.98639 37950 ft 434 kts 218°
2026-05-05 22:39 35.84863 -83.01824 37961 ft 435 kts 218°
2026-05-05 22:39 35.79388 -83.05012 37969 ft 435 kts 218°
2026-05-05 22:40 35.73925 -83.08192 37982 ft 434 kts 218°
2026-05-05 22:40 35.68459 -83.11369 37981 ft 435 kts 218°
2026-05-05 22:41 35.62997 -83.14532 37982 ft 434 kts 218°
2026-05-05 22:41 35.57529 -83.17718 37972 ft 435 kts 218°
2026-05-05 22:42 35.52052 -83.20896 37978 ft 435 kts 218°
2026-05-05 22:42 35.46577 -83.24056 37999 ft 434 kts 217°
2026-05-05 22:43 35.41076 -83.27228 37656 ft 442 kts 217°
2026-05-05 22:43 35.38272 -83.28827 37386 ft 445 kts 217°
2026-05-05 22:43 35.35455 -83.30415 37119 ft 445 kts 216°
2026-05-05 22:43 35.32640 -83.31990 36867 ft 444 kts 217°
2026-05-05 22:44 35.29837 -83.33558 36581 ft 442 kts 216°
2026-05-05 22:44 35.27049 -83.35122 36241 ft 439 kts 216°
2026-05-05 22:44 35.24288 -83.36677 35726 ft 436 kts 216°
2026-05-05 22:44 35.21570 -83.38211 35190 ft 434 kts 216°
2026-05-05 22:45 35.18804 -83.39774 34647 ft 431 kts 216°
2026-05-05 22:45 35.16124 -83.41286 34115 ft 429 kts 216°
2026-05-05 22:45 35.13414 -83.42811 33522 ft 428 kts 216°
2026-05-05 22:45 35.10686 -83.44341 32983 ft 425 kts 215°
2026-05-05 22:46 35.08041 -83.45821 32454 ft 422 kts 215°
2026-05-05 22:46 35.05381 -83.47316 31884 ft 419 kts 215°
2026-05-05 22:46 35.02759 -83.48812 31380 ft 414 kts 215°
2026-05-05 22:46 35.00162 -83.50312 30847 ft 412 kts 215°
2026-05-05 22:47 34.97577 -83.51815 30335 ft 409 kts 214°
2026-05-05 22:47 34.95012 -83.53304 29790 ft 406 kts 214°
2026-05-05 22:47 34.92474 -83.54771 29299 ft 402 kts 214°
2026-05-05 22:47 34.89956 -83.56222 28800 ft 398 kts 214°
2026-05-05 22:48 34.87470 -83.57652 28326 ft 394 kts 214°
2026-05-05 22:48 34.85000 -83.59070 27852 ft 390 kts 214°
2026-05-05 22:48 34.82553 -83.60472 27362 ft 388 kts 214°
2026-05-05 22:48 34.80123 -83.61865 26867 ft 385 kts 214°
2026-05-05 22:49 34.77704 -83.63251 26363 ft 383 kts 213°
2026-05-05 22:49 34.75296 -83.64630 25855 ft 382 kts 213°
2026-05-05 22:49 34.72890 -83.66010 25316 ft 382 kts 213°
2026-05-05 22:49 34.70483 -83.67387 24774 ft 383 kts 213°
2026-05-05 22:50 34.68069 -83.68767 24204 ft 384 kts 212°
2026-05-05 22:50 34.65646 -83.70151 23708 ft 383 kts 212°
2026-05-05 22:50 34.63246 -83.71517 23064 ft 380 kts 212°
2026-05-05 22:50 34.60884 -83.72858 22442 ft 369 kts 212°
2026-05-05 22:51 34.58603 -83.74148 21920 ft 355 kts 212°
2026-05-05 22:51 34.56406 -83.75391 21408 ft 344 kts 212°
2026-05-05 22:51 34.54240 -83.76628 20918 ft 343 kts 212°
2026-05-05 22:51 34.52087 -83.77871 20424 ft 344 kts 212°
2026-05-05 22:52 34.49919 -83.79121 19923 ft 345 kts 211°
2026-05-05 22:52 34.47750 -83.80368 19424 ft 346 kts 211°
2026-05-05 22:52 34.45571 -83.81615 18933 ft 347 kts 211°
2026-05-05 22:52 34.43388 -83.82858 18441 ft 348 kts 210°
2026-05-05 22:53 34.41192 -83.84106 17961 ft 347 kts 210°
2026-05-05 22:53 34.39018 -83.85339 17400 ft 341 kts 210°
2026-05-05 22:53 34.36907 -83.86530 16929 ft 327 kts 211°
2026-05-05 22:53 34.34904 -83.87661 16503 ft 318 kts 211°
2026-05-05 22:54 34.32916 -83.88788 16062 ft 313 kts 211°
2026-05-05 22:54 34.30976 -83.89944 15630 ft 308 kts 213°
2026-05-05 22:54 34.29090 -83.91132 15219 ft 303 kts 214°
2026-05-05 22:54 34.27242 -83.92321 14816 ft 299 kts 214°
2026-05-05 22:55 34.25414 -83.93502 14415 ft 296 kts 214°
2026-05-05 22:55 34.23610 -83.94665 14010 ft 293 kts 214°
2026-05-05 22:55 34.21824 -83.95809 13575 ft 289 kts 214°
2026-05-05 22:55 34.20052 -83.96937 13169 ft 285 kts 214°
2026-05-05 22:56 34.18307 -83.98044 12843 ft 285 kts 214°
2026-05-05 22:56 34.16542 -83.99165 12590 ft 288 kts 214°
2026-05-05 22:56 34.14767 -84.00287 12324 ft 287 kts 213°
2026-05-05 22:56 34.12998 -84.01403 12061 ft 286 kts 213°
2026-05-05 22:57 34.11239 -84.02510 11796 ft 285 kts 213°
2026-05-05 22:57 34.09485 -84.03615 11529 ft 283 kts 213°
2026-05-05 22:57 34.07747 -84.04710 11284 ft 281 kts 213°
2026-05-05 22:57 34.06017 -84.05802 11020 ft 281 kts 213°
2026-05-05 22:58 34.04285 -84.06894 10765 ft 280 kts 213°
2026-05-05 22:58 34.02562 -84.07977 10510 ft 278 kts 213°
2026-05-05 22:58 34.00786 -84.08929 10256 ft 282 kts 201°
2026-05-05 22:58 33.98828 -84.09263 9994 ft 289 kts 185°
2026-05-05 22:59 33.96816 -84.08944 9712 ft 293 kts 175°
2026-05-05 22:59 33.94813 -84.08509 9434 ft 291 kts 175°
2026-05-05 22:59 33.92827 -84.08082 9162 ft 289 kts 175°
2026-05-05 22:59 33.90869 -84.08020 8806 ft 278 kts 197°
2026-05-05 23:00 33.87359 -84.09688 7832 ft 266 kts 205°
2026-05-05 23:00 33.85659 -84.10521 7324 ft 262 kts 204°
2026-05-05 23:00 33.83976 -84.11339 6866 ft 260 kts 203°
2026-05-05 23:01 33.82290 -84.12154 6399 ft 261 kts 203°
2026-05-05 23:01 33.80604 -84.12968 5945 ft 260 kts 202°
2026-05-05 23:01 33.78921 -84.13780 5482 ft 259 kts 202°
2026-05-05 23:01 33.77256 -84.14586 5013 ft 259 kts 201°
2026-05-05 23:02 33.75604 -84.15390 4810 ft 249 kts 201°
2026-05-05 23:02 33.74047 -84.16147 4732 ft 234 kts 201°
2026-05-05 23:02 33.72584 -84.16856 4634 ft 221 kts 201°
2026-05-05 23:02 33.71194 -84.17528 4544 ft 210 kts 201°
2026-05-05 23:03 33.69864 -84.18170 4454 ft 203 kts 201°
2026-05-05 23:03 33.68574 -84.18792 4362 ft 202 kts 202°
2026-05-05 23:03 33.67268 -84.19426 4277 ft 201 kts 202°
2026-05-05 23:03 33.66097 -84.20336 4192 ft 204 kts 221°
2026-05-05 23:04 33.65273 -84.21699 4022 ft 202 kts 242°
2026-05-05 23:04 33.64940 -84.23322 3838 ft 201 kts 263°
2026-05-05 23:04 33.64937 -84.24981 3573 ft 196 kts 264°
2026-05-05 23:04 33.64943 -84.26594 3324 ft 192 kts 264°
2026-05-05 23:05 33.64949 -84.28132 3077 ft 175 kts 264°
2026-05-05 23:05 33.64951 -84.29529 2866 ft 160 kts 265°
2026-05-05 23:05 33.64952 -84.30809 2657 ft 149 kts 263°
2026-05-05 23:05 33.64952 -84.32024 2494 ft 144 kts 263°
2026-05-05 23:06 33.64952 -84.33208 2297 ft 141 kts 263°
2026-05-05 23:06 33.64954 -84.34380 2123 ft 138 kts 264°
2026-05-05 23:06 33.64982 -84.35525 1922 ft 136 kts 264°
2026-05-05 23:06 33.64971 -84.36643 1756 ft 134 kts 263°
2026-05-05 23:07 33.64952 -84.37761 1622 ft 132 kts 265°
2026-05-05 23:07 33.64955 -84.38492 1527 ft 131 kts 265°
2026-05-05 23:07 33.64954 -84.39582 1267 ft 132 kts 268°
2026-05-05 23:07 33.64955 -84.40683 1092 ft 131 kts 266°
2026-05-05 23:08 33.64955 -84.41738 1008 ft 115 kts 267°
2026-05-05 23:08 33.64956 -84.42493 1007 ft 65 kts 271°
2026-05-05 23:08 33.64951 -84.42892 1006 ft 41 kts 269°
2026-05-05 23:08 33.64921 -84.43184 1007 ft 30 kts 250°
2026-05-05 23:09 33.64850 -84.43378 1006 ft 23 kts 254°
2026-05-05 23:09 33.64839 -84.43512 1007 ft 13 kts 245°
2026-05-05 23:09 33.64760 -84.43570 1007 ft 14 kts 211°
2026-05-05 23:09 33.64664 -84.43639 1006 ft 19 kts 210°
2026-05-05 23:10 33.64550 -84.43712 1006 ft 17 kts 196°
2026-05-05 23:10 33.64422 -84.43721 1006 ft 19 kts 181°
2026-05-05 23:10 33.64325 -84.43724 1006 ft 9 kts 180°
2026-05-05 23:10 33.64305 -84.43683 1006 ft 6 kts 87°
2026-05-05 23:11 33.64305 -84.43657 1006 ft 1 kts 90°
2026-05-05 23:11 33.64305 -84.43650 1006 ft 0 kts 89°
2026-05-05 23:11 33.64305 -84.43646 1006 ft 0 kts 89°